Location: Home
(42.5358°N, 72.7383°W)
Time: 05:36:42
(UTC-05:00)

Courier 1B Rocket - Pass Details

Date: 08 December 2021
Orbit: 920 x 1202 km, 28.2° (Epoch: 25 January)

Event Time Altitude Azimuth Distance (km) Brightness Sun altitude
Rises 01:10:08 0° 252° (WSW) 3,595 - -63.2°
Reaches altitude 10° 01:14:22 10° 225° (SW) 2,617 - -62.6°
Maximum altitude 01:17:03 13° 200° (SSW) 2,394 - -62.2°
Drops below altitude 10° 01:19:44 10° 174° (S) 2,599 - -61.8°
Sets 01:23:56 0° 147° (SSE) 3,548 - -61.2°
